This is the latest recevied weather packets stored in our database for station/object F4FEB-13. If no packets are shown the sender has not sent any weather packets the latest 1 day(s).
| Time | Temp. | Humidity | Pressure | Rain* | Wind** | Luminosity | Snow |
|---|---|---|---|---|---|---|---|
| 1836274573 | 18.89° C | 67% | 1020.4 hPa | 0 mm | 0.45 m/s, 317° | - | - |
| 1836274423 | 18.33° C | 69% | 1020.3 hPa | 0 mm | 0.89 m/s, 309° | - | - |
| 1836274273 | 18.89° C | 66% | 1020.5 hPa | 0 mm | 0.45 m/s, 307° | - | - |
| 1836274122 | 18.33° C | 68% | 1020.4 hPa | 0 mm | 0 m/s | - | - |
| 1836273972 | 18.89° C | 65% | 1020.5 hPa | 0 mm | 0.45 m/s, 327° | - | - |
| 1778022262 | 10.56° C | 82% | 1008.9 hPa | 0 mm | 0.89 m/s, 233° | - | - |
| 1778021957 | 10.56° C | 83% | 1008.8 hPa | 0 mm | 2.24 m/s, 240° | - | - |
| 1778021657 | 10.56° C | 82% | 1008.9 hPa | 0 mm | 1.34 m/s, 187° | - | - |
| 1778021357 | 10.56° C | 82% | 1008.8 hPa | 0 mm | 2.24 m/s, 250° | - | - |
| 1778021057 | 11.11° C | 81% | 1008.9 hPa | 0 mm | 1.34 m/s, 174° | - | - |
| 1778020757 | 11.11° C | 81% | 1008.9 hPa | 0 mm | 1.34 m/s, 220° | - | - |
| 1778020457 | 11.11° C | 81% | 1008.9 hPa | 0 mm | 3.13 m/s, 226° | - | - |
| 1778020157 | 11.11° C | 81% | 1008.9 hPa | 0 mm | 1.79 m/s, 212° | - | - |
| 1778019857 | 11.11° C | 80% | 1008.9 hPa | 0 mm | 4.02 m/s, 254° | - | - |
| 1778019557 | 11.11° C | 79% | 1008.9 hPa | 0 mm | 2.68 m/s, 274° | - | - |
| 1778019261 | 11.11° C | 78% | 1009 hPa | 0 mm | 2.68 m/s, 271° | - | - |
| 1778019257 | 11.11° C | 78% | 1009 hPa | 0 mm | 2.68 m/s, 271° | - | - |
| 1778018957 | 11.11° C | 78% | 1008.9 hPa | 0 mm | 3.58 m/s, 260° | - | - |
| 1778018657 | 11.11° C | 78% | 1008.8 hPa | 0 mm | 3.13 m/s, 253° | - | - |
| 1778018360 | 11.11° C | 79% | 1008.8 hPa | 0 mm | 3.13 m/s, 243° | - | - |
| 1778018357 | 11.11° C | 79% | 1008.8 hPa | 0 mm | 3.13 m/s, 243° | - | - |
| 1778018057 | 11.11° C | 81% | 1008.9 hPa | 0 mm | 2.24 m/s, 236° | - | - |
| 1778017757 | 11.11° C | 80% | 1008.8 hPa | 0 mm | 1.34 m/s, 203° | - | - |
| 1778017462 | 11.11° C | 80% | 1008.9 hPa | 0 mm | 0.45 m/s, 275° | - | - |
| 1778017457 | 11.11° C | 80% | 1008.9 hPa | 0 mm | 0.45 m/s, 275° | - | - |
* Rain latest hour (hover to see other rain measurements)
** Current wind speed in m/s (hover to see current wind gust speed)